Location: Buenos Aires
(34.6076°S, 58.4371°W)
Time: 18:01:30
(UTC-03:00)

Envisat - Visible Passes

Search period start: 24 June 2021 00:00
Search period end: 04 July 2021 00:00
Orbit: 764 x 766 km, 98.1° (Epoch: 24 June)

Date Brightness Start Highest point End Pass type
(mag) Time Alt. Az. Time Alt. Az. Time Alt. Az.
24 Jun 3.5 05:40:58 10° N 05:44:38 47° N 05:44:38 47° N visible
24 Jun 5.7 19:33:59 10° SSW 19:37:04 16° WSW 19:40:08 10° WNW visible
25 Jun 4.5 05:04:25 10° NE 05:07:18 31° NE 05:07:18 31° NE visible
25 Jun 4.6 06:45:21 10° NW 06:47:30 16° WNW 06:47:30 16° WNW visible
25 Jun 4.5 18:55:55 10° S 19:00:35 36° WSW 19:05:13 10° NW visible
26 Jun 5.7 04:28:59 10° ENE 04:30:00 14° ENE 04:30:00 14° ENE visible
26 Jun 3.8 06:06:43 10° NNW 06:10:11 33° NW 06:10:11 33° NW visible
26 Jun 3.1 18:18:44 10° S 18:23:56 85° W 18:29:01 10° NNW visible
27 Jun 3.8 05:29:28 10° NNE 05:32:53 44° NNE 05:32:53 44° NNE visible
27 Jun 5.4 19:21:59 10° SSW 19:25:43 21° WSW 19:29:26 10° WNW visible
28 Jun 5.0 04:53:14 10° NE 04:55:34 24° ENE 04:55:34 24° ENE visible
28 Jun 4.4 06:33:07 10° NW 06:35:46 20° WNW 06:35:46 20° WNW visible
28 Jun 4.1 18:44:17 10° S 18:49:11 46° WSW 18:54:02 10° NW visible
29 Jun 3.7 05:55:01 10° N 05:58:27 38° NNW 05:58:27 38° NNW visible
29 Jun 5.9 19:49:08 10° SW 19:50:45 11° WSW 19:52:22 10° W visible
30 Jun 4.2 05:18:04 10° NNE 05:21:09 37° NE 05:21:09 37° NE visible
30 Jun 5.0 07:01:02 10° WNW 07:01:21 10° WNW 07:01:21 10° WNW visible
30 Jun 5.1 19:10:09 10° SSW 19:14:22 26° WSW 19:18:32 10° NW visible
01 Jul 5.4 04:42:09 10° NE 04:43:51 19° ENE 04:43:51 19° ENE visible
01 Jul 4.2 06:21:05 10° NNW 06:24:02 24° WNW 06:24:02 24° WNW visible
01 Jul 3.6 18:32:41 10° S 18:37:46 60° WSW 18:42:46 10° NNW visible
02 Jul 3.7 05:43:24 10° N 05:46:44 41° NNW 05:46:44 41° NNW visible
02 Jul 5.7 19:36:38 10° SSW 19:39:26 15° WSW 19:42:13 10° W visible
03 Jul 4.6 05:06:46 10° NNE 05:09:26 30° NE 05:09:26 30° NE visible
03 Jul 4.8 06:48:05 10° NW 06:49:38 14° WNW 06:49:38 14° WNW visible
03 Jul 4.7 18:58:24 10° S 19:02:59 33° WSW 19:07:30 10° NW visible
